TKJ4BK LTFJ-LTAU

Flight info

Callsign TKJ4BK
Flight time 0h 55m
Altitude 27000
Route VICEN T57 VEVUD/N0458F310 UT341 BAG UG8 GOBIT UL614 MARTI/N0438F270 W76 SARIZ
Aircraft B38M/M-SDE1FGHILORVWXY/HB1

Departure

Time 2026-04-26 21:08
Airport Istanbul Sabiha Gökçen International Airport (LTFJ)

Arrival

Time 2026-04-26 22:03
Airport Kayseri Erkilet International Airport (LTAU)
Time Latitude Longitude Altitude Speed Heading
2026-04-26 20:18 40.90528 29.31877 323 ft 0 kts 154°
2026-04-26 20:47 40.90529 29.31876 323 ft 2 kts 154°
2026-04-26 20:47 40.90560 29.31855 322 ft 4 kts 144°
2026-04-26 20:47 40.90579 29.31831 323 ft 4 kts 119°
2026-04-26 20:48 40.90583 29.31801 323 ft 3 kts 67°
2026-04-26 20:48 40.90582 29.31797 323 ft 1 kts 63°
2026-04-26 20:54 40.90583 29.31801 323 ft 2 kts 63°
2026-04-26 20:54 40.90592 29.31824 320 ft 4 kts 63°
2026-04-26 20:54 40.90608 29.31868 321 ft 6 kts 71°
2026-04-26 20:54 40.90593 29.31929 321 ft 8 kts 137°
2026-04-26 20:55 40.90546 29.31963 323 ft 3 kts 154°
2026-04-26 20:55 40.90518 29.31981 323 ft 6 kts 154°
2026-04-26 20:55 40.90512 29.31985 323 ft 0 kts 154°
2026-04-26 20:57 40.90506 29.31989 323 ft 2 kts 152°
2026-04-26 20:57 40.90491 29.32008 321 ft 4 kts 125°
2026-04-26 20:58 40.90487 29.32051 323 ft 6 kts 80°
2026-04-26 20:58 40.90503 29.32108 322 ft 8 kts 64°
2026-04-26 20:58 40.90518 29.32146 323 ft 0 kts 62°
2026-04-26 21:00 40.90523 29.32158 323 ft 3 kts 63°
2026-04-26 21:00 40.90535 29.32193 321 ft 5 kts 64°
2026-04-26 21:00 40.90555 29.32247 320 ft 8 kts 64°
2026-04-26 21:01 40.90577 29.32307 321 ft 8 kts 64°
2026-04-26 21:01 40.90586 29.32384 323 ft 8 kts 102°
2026-04-26 21:01 40.90552 29.32440 323 ft 9 kts 149°
2026-04-26 21:01 40.90535 29.32452 321 ft 0 kts 153°
2026-04-26 21:03 40.90522 29.32460 320 ft 4 kts 154°
2026-04-26 21:03 40.90503 29.32472 322 ft 2 kts 154°
2026-04-26 21:03 40.90475 29.32485 321 ft 7 kts 169°
2026-04-26 21:03 40.90418 29.32452 319 ft 10 kts 238°
2026-04-26 21:04 40.90404 29.32417 319 ft 0 kts 243°
2026-04-26 21:07 40.90306 29.32147 321 ft 77 kts 244°
2026-04-26 21:07 40.89953 29.31179 320 ft 155 kts 245°
2026-04-26 21:08 40.89458 29.29685 670 ft 192 kts 248°
2026-04-26 21:08 40.88993 29.28125 1797 ft 167 kts 251°
2026-04-26 21:08 40.88494 29.26742 2772 ft 170 kts 245°
2026-04-26 21:08 40.87918 29.25279 3305 ft 190 kts 246°
2026-04-26 21:09 40.87289 29.23629 3598 ft 210 kts 246°
2026-04-26 21:09 40.86615 29.21829 3741 ft 229 kts 246°
2026-04-26 21:09 40.85898 29.19889 3753 ft 237 kts 247°
2026-04-26 21:09 40.85057 29.17966 4298 ft 247 kts 231°
2026-04-26 21:10 40.83647 29.16580 5078 ft 269 kts 204°
2026-04-26 21:10 40.81750 29.16186 5812 ft 287 kts 173°
2026-04-26 21:10 40.79875 29.17040 6885 ft 287 kts 152°
2026-04-26 21:10 40.78061 29.18211 7833 ft 292 kts 154°
2026-04-26 21:11 40.76215 29.19371 8915 ft 294 kts 154°
2026-04-26 21:11 40.74500 29.20823 9924 ft 294 kts 134°
2026-04-26 21:11 40.73065 29.22811 10650 ft 307 kts 133°
2026-04-26 21:11 40.71536 29.24899 11109 ft 327 kts 133°
2026-04-26 21:12 40.69905 29.27138 11539 ft 347 kts 133°
2026-04-26 21:12 40.68204 29.29481 12089 ft 360 kts 133°
2026-04-26 21:12 40.66455 29.31892 12869 ft 365 kts 133°
2026-04-26 21:12 40.64708 29.34300 13659 ft 371 kts 133°
2026-04-26 21:13 40.62904 29.36786 14368 ft 376 kts 134°
2026-04-26 21:13 40.61088 29.39287 15076 ft 380 kts 134°
2026-04-26 21:13 40.59458 29.42040 15754 ft 384 kts 118°
2026-04-26 21:13 40.58549 29.45337 16443 ft 386 kts 100°
2026-04-26 21:14 40.58099 29.48843 17067 ft 391 kts 98°
2026-04-26 21:14 40.57819 29.51193 17502 ft 394 kts 97°
2026-04-26 21:14 40.57274 29.55943 18366 ft 399 kts 97°
2026-04-26 21:14 40.56871 29.59584 18923 ft 403 kts 97°
2026-04-26 21:15 40.56471 29.63247 19512 ft 406 kts 97°
2026-04-26 21:15 40.56204 29.65693 19880 ft 408 kts 97°
2026-04-26 21:15 40.55800 29.69403 20439 ft 411 kts 97°
2026-04-26 21:15 40.55391 29.73148 20989 ft 414 kts 97°
2026-04-26 21:16 40.54844 29.78141 21738 ft 418 kts 97°
2026-04-26 21:16 40.54562 29.80701 22112 ft 420 kts 97°
2026-04-26 21:16 40.54141 29.84519 22643 ft 424 kts 97°
2026-04-26 21:16 40.53715 29.88371 23185 ft 427 kts 97°
2026-04-26 21:17 40.53291 29.92197 23672 ft 430 kts 97°
2026-04-26 21:17 40.52856 29.96103 24093 ft 433 kts 97°
2026-04-26 21:17 40.52418 30.00028 24534 ft 435 kts 97°
2026-04-26 21:17 40.51976 30.03979 24946 ft 438 kts 97°
2026-04-26 21:18 40.51530 30.07951 25405 ft 439 kts 97°
2026-04-26 21:18 40.51087 30.11876 26249 ft 429 kts 97°
2026-04-26 21:18 40.50658 30.15671 26920 ft 406 kts 97°
2026-04-26 21:18 40.50253 30.19243 27127 ft 398 kts 97°
2026-04-26 21:19 40.49837 30.22903 27038 ft 413 kts 97°
2026-04-26 21:19 40.49405 30.26690 27031 ft 425 kts 97°
2026-04-26 21:19 40.48960 30.30585 27034 ft 436 kts 97°
2026-04-26 21:19 40.48502 30.34581 27034 ft 447 kts 97°
2026-04-26 21:20 40.48031 30.38672 27035 ft 457 kts 97°
2026-04-26 21:20 40.47549 30.42841 27038 ft 465 kts 97°
2026-04-26 21:20 40.47060 30.47064 27041 ft 471 kts 97°
2026-04-26 21:20 40.46565 30.51324 27048 ft 472 kts 97°
2026-04-26 21:21 40.46074 30.55535 27049 ft 472 kts 97°
2026-04-26 21:21 40.45576 30.59794 27052 ft 472 kts 97°
2026-04-26 21:21 40.45075 30.64055 27061 ft 472 kts 97°
2026-04-26 21:21 40.44573 30.68320 27070 ft 472 kts 97°
2026-04-26 21:22 40.44069 30.72589 27056 ft 472 kts 97°
2026-04-26 21:22 40.43565 30.76840 27065 ft 472 kts 97°
2026-04-26 21:22 40.43059 30.81091 27068 ft 472 kts 97°
2026-04-26 21:23 40.42048 30.89556 27072 ft 472 kts 97°
2026-04-26 21:23 40.41536 30.93815 27071 ft 472 kts 97°
2026-04-26 21:23 40.41022 30.98082 27070 ft 472 kts 97°
2026-04-26 21:23 40.40508 31.02338 27071 ft 471 kts 98°
2026-04-26 21:24 40.40000 31.06532 27075 ft 471 kts 98°
2026-04-26 21:24 40.39485 31.10777 27065 ft 471 kts 98°
2026-04-26 21:24 40.38969 31.15023 27076 ft 471 kts 98°
2026-04-26 21:24 40.38450 31.19266 27077 ft 471 kts 98°
2026-04-26 21:25 40.37838 31.23486 27076 ft 471 kts 101°
2026-04-26 21:25 40.37133 31.27703 27070 ft 471 kts 101°
2026-04-26 21:25 40.36447 31.31906 27080 ft 471 kts 101°
2026-04-26 21:25 40.35768 31.36100 27072 ft 471 kts 101°
2026-04-26 21:26 40.35087 31.40312 27075 ft 471 kts 101°
2026-04-26 21:26 40.34408 31.44510 27073 ft 471 kts 101°
2026-04-26 21:26 40.33726 31.48713 27072 ft 471 kts 101°
2026-04-26 21:26 40.33044 31.52904 27072 ft 471 kts 101°
2026-04-26 21:27 40.32359 31.57104 27068 ft 471 kts 101°
2026-04-26 21:27 40.31683 31.61240 27071 ft 471 kts 101°
2026-04-26 21:27 40.30996 31.65433 27074 ft 471 kts 101°
2026-04-26 21:27 40.30307 31.69631 27070 ft 471 kts 101°
2026-04-26 21:28 40.29614 31.73839 27067 ft 471 kts 101°
2026-04-26 21:28 40.28921 31.78039 27066 ft 471 kts 101°
2026-04-26 21:28 40.28226 31.82237 27067 ft 471 kts 101°
2026-04-26 21:28 40.27541 31.86376 27066 ft 470 kts 101°
2026-04-26 21:29 40.26838 31.90565 27063 ft 471 kts 103°
2026-04-26 21:29 40.25935 31.94695 27068 ft 471 kts 105°
2026-04-26 21:29 40.25025 31.98813 27063 ft 471 kts 104°
2026-04-26 21:29 40.24130 32.02931 27064 ft 471 kts 104°
2026-04-26 21:30 40.23237 32.07058 27063 ft 471 kts 104°
2026-04-26 21:30 40.22347 32.11176 27064 ft 470 kts 104°
2026-04-26 21:30 40.21463 32.15257 27064 ft 470 kts 104°
2026-04-26 21:30 40.20572 32.19366 27062 ft 470 kts 104°
2026-04-26 21:31 40.19677 32.23482 27060 ft 470 kts 104°
2026-04-26 21:31 40.18783 32.27591 27058 ft 470 kts 104°
2026-04-26 21:31 40.17886 32.31702 27058 ft 470 kts 104°
2026-04-26 21:31 40.16988 32.35811 27058 ft 470 kts 104°
2026-04-26 21:32 40.16088 32.39923 27056 ft 470 kts 104°
2026-04-26 21:32 40.15189 32.44019 27059 ft 470 kts 104°
2026-04-26 21:32 40.14287 32.48125 27059 ft 470 kts 105°
2026-04-26 21:32 40.13420 32.52061 27052 ft 470 kts 105°
2026-04-26 21:33 40.12517 32.56153 27056 ft 470 kts 105°
2026-04-26 21:33 40.11611 32.60252 27055 ft 469 kts 105°
2026-04-26 21:33 40.10704 32.64350 27054 ft 469 kts 105°
2026-04-26 21:33 40.09795 32.68449 27052 ft 469 kts 105°
2026-04-26 21:34 40.08898 32.72487 27051 ft 469 kts 105°
2026-04-26 21:34 40.07990 32.76569 27048 ft 468 kts 105°
2026-04-26 21:34 40.07052 32.80650 27046 ft 469 kts 109°
2026-04-26 21:34 40.05854 32.84605 27054 ft 469 kts 110°
2026-04-26 21:35 40.04660 32.88586 27048 ft 469 kts 110°
2026-04-26 21:35 40.03488 32.92555 27050 ft 469 kts 110°
2026-04-26 21:35 40.02323 32.96529 27050 ft 469 kts 110°
2026-04-26 21:35 40.01158 33.00508 27048 ft 469 kts 110°
2026-04-26 21:36 39.99994 33.04480 27045 ft 469 kts 110°
2026-04-26 21:36 39.98827 33.08457 27046 ft 468 kts 110°
2026-04-26 21:36 39.97661 33.12422 27046 ft 469 kts 110°
2026-04-26 21:36 39.96493 33.16397 27047 ft 468 kts 110°
2026-04-26 21:37 39.95327 33.20357 27044 ft 468 kts 110°
2026-04-26 21:37 39.94175 33.24263 27040 ft 468 kts 110°
2026-04-26 21:37 39.93003 33.28227 27041 ft 468 kts 110°
2026-04-26 21:37 39.91833 33.32181 27034 ft 468 kts 110°
2026-04-26 21:38 39.90659 33.36141 27033 ft 467 kts 110°
2026-04-26 21:38 39.89484 33.40098 27027 ft 467 kts 110°
2026-04-26 21:38 39.88313 33.44039 27029 ft 467 kts 110°
2026-04-26 21:38 39.87136 33.47988 27030 ft 467 kts 110°
2026-04-26 21:39 39.85964 33.51923 27028 ft 467 kts 110°
2026-04-26 21:39 39.84789 33.55859 27030 ft 466 kts 110°
2026-04-26 21:39 39.83349 33.59639 27015 ft 467 kts 124°
2026-04-26 21:39 39.81226 33.62746 27027 ft 468 kts 139°
2026-04-26 21:40 39.78722 33.65451 27029 ft 468 kts 140°
2026-04-26 21:40 39.76183 33.68113 27028 ft 468 kts 141°
2026-04-26 21:40 39.73624 33.70749 27030 ft 468 kts 141°
2026-04-26 21:40 39.71059 33.73360 27030 ft 468 kts 141°
2026-04-26 21:41 39.68489 33.75958 27028 ft 468 kts 142°
2026-04-26 21:41 39.65920 33.78549 27028 ft 468 kts 142°
2026-04-26 21:41 39.63347 33.81141 27029 ft 467 kts 142°
2026-04-26 21:41 39.60780 33.83725 27028 ft 467 kts 142°
2026-04-26 21:42 39.58242 33.86276 27028 ft 467 kts 142°
2026-04-26 21:42 39.55674 33.88856 27030 ft 467 kts 142°
2026-04-26 21:42 39.53101 33.91437 27029 ft 467 kts 141°
2026-04-26 21:42 39.50532 33.94012 27025 ft 465 kts 142°
2026-04-26 21:43 39.47997 33.96551 26505 ft 458 kts 142°
2026-04-26 21:43 39.45488 33.99061 25953 ft 453 kts 142°
2026-04-26 21:43 39.43001 34.01548 25360 ft 450 kts 142°
2026-04-26 21:43 39.40528 34.04017 24775 ft 447 kts 142°
2026-04-26 21:44 39.38073 34.06466 24189 ft 444 kts 142°
2026-04-26 21:44 39.35634 34.08898 23610 ft 442 kts 142°
2026-04-26 21:44 39.33236 34.11286 22936 ft 439 kts 142°
2026-04-26 21:44 39.30824 34.13687 22342 ft 435 kts 142°
2026-04-26 21:45 39.28438 34.16059 21821 ft 430 kts 142°
2026-04-26 21:45 39.26084 34.18398 21340 ft 424 kts 142°
2026-04-26 21:45 39.23757 34.20707 20862 ft 419 kts 143°
2026-04-26 21:45 39.21457 34.22988 20413 ft 414 kts 143°
2026-04-26 21:46 39.19180 34.25244 19835 ft 412 kts 143°
2026-04-26 21:46 39.16882 34.27519 18988 ft 418 kts 143°
2026-04-26 21:46 39.14592 34.29786 18427 ft 416 kts 143°
2026-04-26 21:46 39.12357 34.32001 18396 ft 400 kts 142°
2026-04-26 21:47 39.10482 34.34576 18209 ft 390 kts 123°
2026-04-26 21:47 39.09117 34.37510 18019 ft 373 kts 121°
2026-04-26 21:47 39.07816 34.40293 17841 ft 353 kts 121°
2026-04-26 21:47 39.06575 34.42965 16575 ft 352 kts 121°
2026-04-26 21:48 39.05239 34.45856 15427 ft 372 kts 121°
2026-04-26 21:48 39.04887 34.46620 15446 ft 364 kts 121°
2026-04-26 21:48 39.03886 34.48786 15063 ft 363 kts 121°
2026-04-26 21:49 39.02630 34.51505 14640 ft 352 kts 121°
2026-04-26 21:49 39.01395 34.54179 14201 ft 342 kts 122°
2026-04-26 21:49 39.00194 34.56775 13753 ft 334 kts 122°
2026-04-26 21:49 38.99021 34.59310 13277 ft 326 kts 122°
2026-04-26 21:50 38.97874 34.61786 12799 ft 319 kts 122°
2026-04-26 21:50 38.97125 34.63402 12484 ft 315 kts 122°
2026-04-26 21:50 38.95653 34.66574 12052 ft 300 kts 122°
2026-04-26 21:50 38.94602 34.68839 11793 ft 291 kts 122°
2026-04-26 21:51 38.93570 34.71059 11539 ft 288 kts 122°
2026-04-26 21:51 38.92545 34.73265 11275 ft 287 kts 122°
2026-04-26 21:51 38.91536 34.75434 10971 ft 284 kts 122°
2026-04-26 21:51 38.90538 34.77577 10709 ft 275 kts 122°
2026-04-26 21:52 38.89566 34.79664 10605 ft 265 kts 122°
2026-04-26 21:52 38.88640 34.81649 10600 ft 251 kts 122°
2026-04-26 21:52 38.87767 34.83521 10555 ft 239 kts 122°
2026-04-26 21:52 38.86932 34.85309 10466 ft 228 kts 122°
2026-04-26 21:53 38.86127 34.87035 10382 ft 227 kts 122°
2026-04-26 21:53 38.85305 34.88792 10297 ft 232 kts 122°
2026-04-26 21:53 38.84483 34.90551 10199 ft 233 kts 122°
2026-04-26 21:53 38.83646 34.92340 10091 ft 233 kts 122°
2026-04-26 21:54 38.82811 34.94124 9883 ft 234 kts 122°
2026-04-26 21:54 38.81970 34.95923 9607 ft 234 kts 122°
2026-04-26 21:54 38.81131 34.97713 9347 ft 233 kts 122°
2026-04-26 21:54 38.80301 34.99484 9084 ft 230 kts 122°
2026-04-26 21:55 38.79480 35.01233 8863 ft 224 kts 122°
2026-04-26 21:55 38.78702 35.02893 8645 ft 217 kts 122°
2026-04-26 21:55 38.77932 35.04533 8388 ft 211 kts 122°
2026-04-26 21:55 38.77437 35.05586 8242 ft 206 kts 122°
2026-04-26 21:56 38.76899 35.06730 8131 ft 197 kts 122°
2026-04-26 21:56 38.76209 35.08197 8022 ft 190 kts 122°
2026-04-26 21:56 38.75522 35.09658 7973 ft 197 kts 122°
2026-04-26 21:56 38.74805 35.11181 7901 ft 201 kts 122°
2026-04-26 21:57 38.74082 35.12718 7801 ft 201 kts 122°
2026-04-26 21:57 38.73363 35.14246 7679 ft 201 kts 122°
2026-04-26 21:57 38.72643 35.15774 7573 ft 200 kts 122°
2026-04-26 21:57 38.71922 35.17304 7473 ft 200 kts 122°
2026-04-26 21:58 38.71445 35.18948 7275 ft 197 kts 91°
2026-04-26 21:58 38.71622 35.20676 7150 ft 197 kts 77°
2026-04-26 21:58 38.71913 35.22391 7068 ft 198 kts 76°
2026-04-26 21:58 38.72214 35.24097 6951 ft 188 kts 76°
2026-04-26 21:59 38.72471 35.25626 6845 ft 172 kts 76°
2026-04-26 21:59 38.72737 35.27100 6686 ft 167 kts 76°
2026-04-26 21:59 38.73006 35.28516 6483 ft 162 kts 75°
2026-04-26 21:59 38.73274 35.29910 6291 ft 161 kts 75°
2026-04-26 22:00 38.73541 35.31296 6085 ft 160 kts 75°
2026-04-26 22:00 38.73808 35.32683 5877 ft 160 kts 75°
2026-04-26 22:00 38.74074 35.34059 5673 ft 159 kts 75°
2026-04-26 22:00 38.74338 35.35432 5458 ft 158 kts 75°
2026-04-26 22:01 38.74603 35.36803 5262 ft 158 kts 75°
2026-04-26 22:01 38.74866 35.38170 5053 ft 158 kts 75°
2026-04-26 22:01 38.75124 35.39512 4844 ft 157 kts 76°
2026-04-26 22:01 38.75384 35.40868 4626 ft 156 kts 76°
2026-04-26 22:02 38.75641 35.42210 4388 ft 154 kts 76°
2026-04-26 22:02 38.75809 35.43092 4244 ft 153 kts 76°
2026-04-26 22:02 38.76146 35.44840 3901 ft 149 kts 76°
2026-04-26 22:02 38.76389 35.46131 3746 ft 149 kts 76°
2026-04-26 22:03 38.76636 35.47412 3565 ft 148 kts 76°
2026-04-26 22:03 38.76878 35.48666 3469 ft 128 kts 76°
2026-04-26 22:03 38.77035 35.49488 3469 ft 65 kts 76°
2026-04-26 22:03 38.77112 35.49908 3465 ft 40 kts 76°
2026-04-26 22:04 38.77180 35.50260 3465 ft 33 kts 77°
2026-04-26 22:04 38.77220 35.50484 3465 ft 13 kts 77°
2026-04-26 22:04 38.77274 35.50554 3469 ft 11 kts
2026-04-26 22:04 38.77342 35.50534 3469 ft 9 kts 327°
2026-04-26 22:05 38.77354 35.50459 3469 ft 10 kts 255°
2026-04-26 22:05 38.77332 35.50358 3465 ft 14 kts 257°
2026-04-26 22:05 38.77311 35.50223 3464 ft 17 kts 258°
2026-04-26 22:05 38.77282 35.50070 3464 ft 18 kts 255°
2026-04-26 22:06 38.77251 35.49908 3464 ft 19 kts 256°
2026-04-26 22:06 38.77221 35.49745 3468 ft 18 kts 256°
2026-04-26 22:06 38.77201 35.49642 3468 ft 18 kts 256°
2026-04-26 22:06 38.77159 35.49424 3470 ft 19 kts 256°
2026-04-26 22:07 38.77129 35.49263 3471 ft 19 kts 256°
2026-04-26 22:07 38.77096 35.49094 3471 ft 21 kts 256°
2026-04-26 22:07 38.77062 35.48909 3470 ft 22 kts 256°
2026-04-26 22:07 38.77041 35.48792 3468 ft 17 kts 257°
2026-04-26 22:08 38.77015 35.48650 3467 ft 13 kts 257°
2026-04-26 22:08 38.76978 35.48585 3468 ft 7 kts 192°
2026-04-26 22:08 38.76928 35.48593 3469 ft 8 kts 167°
2026-04-26 22:08 38.76873 35.48609 3469 ft 8 kts 166°
2026-04-26 22:09 38.76814 35.48627 3470 ft 9 kts 167°
2026-04-26 22:09 38.76750 35.48639 3470 ft 10 kts 194°
2026-04-26 22:09 38.76689 35.48630 3470 ft 10 kts 166°
2026-04-26 22:09 38.76653 35.48641 3470 ft 0 kts 166°
2026-04-26 22:10 38.76652 35.48642 3470 ft 0 kts 166°